Погода в Бланкенберге

Бельгия     51°18′49″N   3°08′04″E
темп.,
°C
ветер,
м/с
пор.,
м/с
влажн.,
%
обл.,
%
осадки,
мм/ч
давл.,
гПа
погр.,
м
27 января, чт
чт2701:00+5зюз61389100 0.0 1029473
04:00+5юз71587100 0.0 1027523
07:00+7зюз91688100 0.0 1025517
10:00+8з91488100 0.1 1025591
13:00+8з81490100 0.2 1026670
16:00+9зсз71289100 0.2 1026880
19:00+8зсз712760 0.3 1028470
22:00+7сз712797 0.0 1030415
28 января, пт
пт2801:00+7сз610875 0.0 1032329
04:00+6сз4788100 0.0 1033138
07:00+6сз3587100 0.0 103580
10:00+6з11815 0.0 103611
13:00+8юз44697 0.0 1036776
16:00+8зюз4777100 0.0 1034691
19:00+6юз51086100 0.0 1033384
22:00+6юз61390100 0.0 1032452
29 января, сб
сб2901:00+7зюз7149170 0.0 1030387
04:00+8зюз8149538 0.0 1028421
07:00+8зюз8149499 0.0 1027403
10:00+9зюз91492100 0.0 1027750
13:00+10зюз91487100 0.1 1026919
16:00+10зюз10178739 0.0 1024764
19:00+10з9178598 0.0 1025655
22:00+10з916880 0.1 1026774
30 января, вс
вс3001:00+8сз812772 0.1 1029642
04:00+6ссз711685 0.0 1030634
07:00+5ссз610739 0.0 1032411
10:00+7с576699 0.0 1034971
13:00+7с4461100 0.0 10341123
16:00+7ссз336022 0.0 1033966
19:00+4сз117355 0.0 103211
22:00+4юз2278100 0.0 103049
31 января, пн
пн3101:00+3ююз3682100 0.0 1027121
04:00+3ююз61282100 0.0 1022434
07:00+4юз71585100 0.9 1017763
10:00+6з10137813 1.6 1014875
13:00+6ссз81388100 2.3 10141200
16:00+6ссз141878100 1.0 10171302
19:00+6ссз13197982 1.2 10211323
22:00+6ссз12168197 0.3 10241124